This demonstration page uses our WeatherBlox Daily Observations layout. Learn more.

39.01783, -85.05884

Hourly Observations for August 1, 2019

Temp ( °F °C ) Dew Point ( °F °C ) Humidity (%) Winds ( mph kmh ) Pressure ( in mb ) Visibility ( mi km ) Precip ( " mm )
12:52 am 00:52 Mostly Cloudy 72 22.2 61 16.1 68 68 N 7 11 30.06 1018 10 16.09344 0 0
1:52 am 01:52 Mostly Clear 71 21.7 60 15.6 68 68 N 6 9 30.06 1018 10 16.09344 0 0
2:52 am 02:52 Mostly Clear 70 21.1 60 15.6 71 71 NNE 6 9 30.06 1018 10 16.09344 0 0
3:52 am 03:52 Mostly Clear 67 19.4 60 15.6 79 79 N 5 7 30.06 1018 10 16.09344 0 0
4:52 am 04:52 Mostly Clear 67 19.4 60 15.6 79 79 N 5 7 30.03 1017 10 16.09344 0 0
5:52 am 05:52 Partly Cloudy 66 18.9 59 15 78 78 NNW 6 9 30.06 1018 10 16.09344 0 0
6:52 am 06:52 Partly Cloudy 66 18.9 60 15.6 81 81 N 6 9 30.06 1018 10 16.09344 0 0
7:52 am 07:52 Partly Cloudy 70 21.1 61 16.1 73 73 NNE 3 6 30.06 1018 10 16.09344 0 0
8:52 am 08:52 Partly Cloudy 73 22.8 63 17.2 71 71 NE 3 6 30.06 1018 10 16.09344 0 0
9:52 am 09:52 Mostly Sunny 77 25 65 18.3 66 66 ENE 5 7 30.09 1019 10 16.09344 0 0
10:52 am 10:52 Mostly Sunny 80 26.7 66 18.9 62 62 N 3 6 30.09 1019 10 16.09344 0 0
11:52 am 11:52 Mostly Sunny 83 28.3 68 20 61 61 NW 5 7 30.09 1019 10 16.09344 0 0
12:52 pm 12:52 Mostly Cloudy 84 28.9 62 16.7 48 48 WNW 5 7 30.09 1019 10 16.09344 0 0
1:52 pm 13:52 Partly Cloudy 83 28.3 63 17.2 51 51 N 7 11 30.09 1019 10 16.09344 0 0
2:52 pm 14:52 Mostly Cloudy 87 30.6 62 16.7 43 43 NE 7 11 30.06 1018 10 16.09344 0 0
3:52 pm 15:52 Mostly Cloudy 88 31.1 62 16.7 42 42 NW 6 9 30.03 1017 10 16.09344 0 0
4:52 pm 16:52 Partly Cloudy 89 31.7 61 16.1 39 39 VRB 5 7 30.03 1017 10 16.09344 0 0
5:52 pm 17:52 Mostly Cloudy 86 30 61 16.1 43 43 NW 10 17 30 1016 10 16.09344 0 0
6:52 pm 18:52 Partly Cloudy 86 30 61 16.1 43 43 NNW 9 15 30 1016 10 16.09344 0 0
7:52 pm 19:52 Mostly Cloudy 85 29.4 62 16.7 46 46 NNW 8 13 30 1016 10 16.09344 0 0
8:52 pm 20:52 Cloudy 80 26.7 64 17.8 58 58 N 17 28 30.03 1017 10 16.09344 0 0
8:59 pm 20:59 Cloudy 79 26.1 64 17.8 60 60 N 10 17 30.03 1017 10 16.09344 0 0
9:52 pm 21:52 Mostly Cloudy 76 24.4 66 18.9 72 72 NE 12 19 30.03 1017 10 16.09344 0.001 0.001
10:52 pm 22:52 Mostly Clear 76 24.4 65 18.3 69 69 E 8 13 30.06 1018 10 16.09344 0 0
11:52 pm 23:52 Mostly Clear 75 23.9 64 17.8 69 69 ENE 13 20 30.06 1018 10 16.09344 0 0

Powered by AerisWeather